Home   Weather   Hanoi   Past weeks

Flag for Vietnam Past Weather in Hanoi, Vietnam — Yesterday and Last 2 Weeks

Now
73 °F

Haze.


Feels Like: 77 °F
Forecast: 64 / 81 °F
Wind: 5 mph from Southwest

Location: Ha Noi Airport

Current Time: Dec 4, 2016 at 9:30:06 pm

Latest Report: Dec 4, 2016 at 9:00 pm


Visibility: 3 mi

Pressure: 30.07 "Hg

Humidity: 53%

Dew Point: 55 °F

Location of HanoiLocation

Past Weather in Hanoi — Graph

°F

Hanoi Temperature Yesterday

Maximum temperature yesterday: 79 °F (at 12:30 pm)
Minimum temperature yesterday: 64 °F (at 12:00 am)
Average temperature yesterday: 72 °F

High & Low Weather Summary for the Past Weeks

 TemperatureHumidityPressure
High90 °F (Nov 23, 2:30 pm)94% (Nov 26, 12:00 am)30.30 "Hg (Nov 26, 12:00 am)
Low55 °F (Nov 28, 4:00 am)25% (Nov 28, 1:30 pm)29.74 "Hg (Nov 21, 3:00 pm)
Average71 °F54%30.05 "Hg
* Reported Nov 19 8:00 pm — Dec 4 8:00 pm, Hanoi, Weather by CustomWeather, © 2016

Note: Actual official high and low records may vary slightly from our data, if they occured in-between our weather recording intervals... More about our weather records

Advertising

Hanoi Weather History for the Previous 24 Hours

Scroll right to see more
 ConditionsComfort  
Time TempWeatherWind HumidityBarometerVisibility
8:00 pm
Sun, Dec 4
75 °FHaze.5 mph50%30.07 "Hg3 mi
7:30 pm75 °FHaze.5 mph50%30.07 "Hg3 mi
7:00 pm75 °FHaze.5 mph47%30.07 "Hg3 mi
6:30 pm77 °FClear.5 mph44%30.04 "Hg4 mi
6:00 pm77 °FPassing clouds.3 mph44%30.04 "Hg4 mi
5:30 pm77 °FHaze.5 mph44%30.04 "Hg2 mi
5:00 pm79 °FPassing clouds.6 mph42%30.04 "Hg4 mi
4:30 pm79 °FPassing clouds.6 mph42%30.04 "Hg4 mi
4:00 pm79 °FPassing clouds.3 mph42%30.01 "Hg4 mi
3:30 pm81 °FScattered clouds.6 mph39%30.01 "Hg4 mi
3:00 pm81 °FScattered clouds.6 mph39%30.01 "Hg4 mi
2:30 pm81 °FBroken clouds.3 mph39%30.01 "Hg5 mi
2:00 pm81 °FScattered clouds.5 mph37%30.04 "Hg6 mi
1:30 pm81 °FPartly sunny.3 mph37%30.04 "Hg6 mi
1:00 pm79 °FPartly sunny.2 mph37%30.07 "HgN/A
12:00 pm79 °FPassing clouds.5 mph37%30.09 "HgN/A
11:30 am79 °FPassing clouds.5 mph37%30.12 "HgN/A
11:00 am77 °FPassing clouds.5 mph42%30.12 "HgN/A
10:30 am75 °FPassing clouds.6 mph41%30.15 "HgN/A
9:30 am75 °FPassing clouds.8 mph44%30.15 "HgN/A
9:00 am73 °FClear.5 mph47%30.15 "Hg4 mi
8:30 am70 °FHaze.3 mph60%30.15 "Hg2 mi
8:00 am68 °FPartly sunny.6 mph64%30.15 "Hg2 mi
7:30 am66 °FFog.3 mph73%30.15 "Hg2 mi
7:00 am66 °FScattered clouds.3 mph68%30.15 "Hg2 mi
6:30 am66 °FFog.5 mph73%30.12 "Hg2 mi
6:00 am66 °FFog.7 mph73%30.12 "Hg3 mi
5:30 am68 °FFog.6 mph69%30.12 "Hg3 mi
5:00 am68 °FPassing clouds.5 mph64%30.09 "Hg4 mi
4:30 am70 °FPassing clouds.1 mph57%30.09 "Hg6 mi
4:00 am70 °FPassing clouds.3 mph60%30.09 "Hg5 mi
3:30 am70 °FPassing clouds.5 mph60%30.09 "Hg4 mi
3:00 am70 °FPassing clouds.3 mph60%30.09 "Hg4 mi
2:30 am70 °FPassing clouds.3 mph60%30.09 "Hg3 mi
2:00 am70 °FPassing clouds.3 mph60%30.09 "Hg3 mi
1:30 am70 °FPassing clouds.3 mph64%30.09 "Hg3 mi
1:00 am70 °FPassing clouds.5 mph64%30.12 "Hg3 mi
12:30 am70 °FHaze.5 mph60%30.12 "Hg3 mi
12:00 am72 °FHaze.2 mph53%30.12 "Hg3 mi
11:30 pm
Sat, Dec 3
72 °FPassing clouds.2 mph53%30.12 "Hg4 mi
11:00 pm72 °FClear.2 mph53%30.12 "Hg4 mi
10:30 pm72 °FClear.2 mph53%30.12 "Hg4 mi
10:00 pm72 °FClear.2 mph53%30.12 "Hg3 mi
9:30 pm73 °FHaze.3 mph50%30.12 "Hg3 mi
9:00 pm73 °FClear.3 mph50%30.12 "Hg3 mi
Weather by CustomWeather, © 2016

See weather overviewHow to use our weather pages